Regional Weather Roundup
Issued by NWS

Home | Current Version | Previous Version | Text Only | Print | Product List | Glossary On
Versions: 1 2 3 4 5 6 7 8 9 10 11 12 13 14 15 16 17 18 19 20 21 22 23 24 25 26 27 28 29 30 31 32 33 34 35 36 37 38 39 40 41 42 43 44 45 46 47 48 49 50
602
ASUS45 KSLC 211410
RWRUT

UTAH REGIONAL WEATHER ROUNDUP
NATIONAL WEATHER SERVICE SALT LAKE CITY UT
700 AM MST SAT JAN 21 2017

UTZ001>011-023>025-211500-

NORTHERN UTAH

CITY           SKY/WX    TMP DP  RH WIND       PRES   REMARKS
BRIGHAM CITY     N/A     31  29  93 NW6       29.33R WCI  25
HILL AFB       LGT SNOW  30  28  93 E12       29.31R FOG     WCI  21
LOGAN          LGT SNOW  25  24  96 CALM      29.33R FOG
OGDEN          LGT SNOW  31  31 100 S6        29.31R FOG     WCI  25
SALT LAKE CITY LGT SNOW  33  32  96 CALM      29.32R VSB 3/4
TOOELE VALLEY  LGT SNOW  32  32 100 CALM      29.34R
WENDOVER       CLOUDY    28  25  86 CALM      29.36R
HEBER CITY     LGT SNOW  28  28 100 CALM      29.28R
WEST JORDAN    CLOUDY    32  32 100 CALM      29.32R

$$

UTZ011>015-024>027-211500-

CENTRAL/NORTHEAST UTAH

CITY           SKY/WX    TMP DP  RH WIND       PRES   REMARKS
PROVO AIRPORT  LGT SNOW  32  30  93 NW8       29.32R FOG     WCI  25
MOAB/CANYONLAN CLOUDY    34  33  96 SE6       29.30R WCI  29
DELTA          CLOUDY    32  32 100 W6        29.34R VSB 1   WCI  26
PRICE          CLOUDY    30  29  96 CALM      29.29R FOG
RICHFIELD        N/A     32  32 100 SW5       29.34R FOG     WCI  27
ROOSEVELT      LGT SNOW  23  19  86 CALM      29.38R
VERNAL         LGT SNOW  21  18  88 CALM      29.34S FOG

$$

UTZ013>016-019>022-027-211500-

SOUTHERN UTAH

CITY           SKY/WX    TMP DP  RH WIND       PRES   REMARKS
BRYCE CANYON   MOCLDY    21  18  88 NW6       29.33R WCI  13
CEDAR CITY     CLOUDY    30  26  85 SW3       29.38R
MILFORD        LGT SNOW  32  30  92 S6        29.38R VSB 3/4 WCI  26
ST GEORGE      CLOUDY    41  34  75 SW10      29.47R
HANKSVILLE     CLOUDY    34  32  93 MISG      29.33R
KANAB          CLOUDY    34  32  93 S9        29.45R FOG     WCI  26
BLANDING       CLOUDY    31  31 100 S3        29.39R

$$

REGIONAL REPORTS     COLORADO/ARIZONA

CITY           SKY/WX    TMP DP  RH WIND       PRES   REMARKS
CRAIG, CO      CLOUDY    17  12  80 SW5       29.34S WCI  10
GRAND JUNCTION LGT SNOW  31  31 100 SE10      29.33R FOG     WCI  22
RIFLE, CO      CLOUDY    28  24  85 SW3       29.34R
MONTROSE, CO   CLOUDY    32  17  54 E13       29.34S WCI  22
CORTEZ, CO     SNOW      31  31 100 CALM      29.33S VSB 1/2
COLORADO CITY  FLURRIES  34  32  93 SW14      29.45R WCI  24
PAGE, AZ       MOCLDY    36  30  79 SE5       29.37R WCI  32
GRAND CANYON   CLOUDY    26  25  96 SW13      29.44R WCI  15
KINGMAN, AZ    CLOUDY    39  28  64 SW24G31   29.52R WCI  28
FLAGSTAFF, AZ  LGT SNOW  25  23  92 SW13G22   29.44R VSB 1   WCI  14

$$

REGIONAL REPORTS    NEVADA/IDAHO/WYOMING

CITY           SKY/WX    TMP DP  RH WIND       PRES   REMARKS
LAS VEGAS, NV  MOCLDY    44  30  57 SW7       29.50R
ELY, NY        MOCLDY    23  19  85 W8        29.42R WCI  14
ELKO, NV       CLOUDY    29  25  85 W9        29.42R WCI  20
POCATELLO, ID  LGT SNOW  27  25  92 SW7       29.36R WCI  19
BURLEY, ID     CLOUDY    33  28  81 W7        29.35R WCI  27
FORT BRIDGER,  CLOUDY    15  15 100 W3        29.33R
EVANSTON, WY   LGT SNOW  17  12  80 E5        29.29R VSB 1   WCI  10
ROCK SPRINGS,  CLOUDY    14  11  87 NE7       29.31R WCI   4

$$




USA.gov is the U.S. government's official web portal to all federal, state and local government web resources and services.